This demonstration page uses our WeatherBlox Daily Observations layout. Learn more.

Left ArrowRight Arrow

Hourly Observations for March 27, 2021

Temp ( °F °C ) Dew Point ( °F °C ) Humidity (%) Winds ( mph kmh ) Pressure ( in mb ) Visibility ( mi km ) Precip ( " mm )
12:53 am 00:53 Cloudy 63 17.2 59 15 87 87 Calm 30.11 1020 10 16 0.00 0.00
1:53 am 01:53 Mostly Cloudy 64 17.8 60 15.6 87 87 Calm 30.11 1020 10 16 0.00 0.00
2:53 am 02:53 Mostly Cloudy 63 17.2 59 15 87 87 Calm 30.10 1019 10 16 0.00 0.00
3:53 am 03:53 Mostly Cloudy 64 17.8 61 16.1 90 90 Calm 30.09 1019 10 16 0.00 0.00
4:35 am 04:35 Cloudy 63 17.2 60 15.6 90 90 Calm 30.10 1019 10 16 0.00 0.00
4:53 am 04:53 Cloudy 63 17.2 60 15.6 90 90 Calm 30.09 1019 10 16 0.00 0.00
5:46 am 05:46 Cloudy 63 17.2 60 15.6 90 90 Calm 30.11 1020 10 16 0.00 0.00
5:53 am 05:53 Cloudy 63 17.2 61 16.1 93 93 Calm 30.10 1019 10 16 0.00 0.00
6:04 am 06:04 Cloudy 64 17.8 61 16.1 90 90 Calm 30.12 1020 10 16 0.00 0.00
6:32 am 06:32 Cloudy 64 17.8 61 16.1 90 90 Calm 30.12 1020 10 16 0.00 0.00
6:51 am 06:51 Cloudy 64 18 61 16 88 88 Calm 30.11 1020 10 16 0.00 0.00
6:53 am 06:53 Cloudy 64 17.8 61 16.1 90 90 Calm 30.10 1019 10 16 0.00 0.00
7:53 am 07:53 Cloudy 64 17.8 61 16.1 90 90 Calm 30.10 1019 10 16 0.00 0.00
8:53 am 08:53 Cloudy 65 18.3 62 16.7 90 90 Calm 30.10 1019 10 16 0.00 0.00
9:53 am 09:53 Cloudy with Mist and Fog 67 19.4 65 18.3 93 93 W 3 6 30.12 1020 6 10 0.00 0.00
10:53 am 10:53 Cloudy 70 21.1 67 19.4 90 90 SSW 5 7 30.13 1020 10 16 0.00 0.00
11:08 am 11:08 Cloudy 71 21.7 67 19.4 87 87 SSW 6 9 30.12 1020 10 16 0.00 0.00
11:41 am 11:41 Cloudy 72 22.2 67 19.4 84 84 VRB 6 9 30.12 1020 10 16 0.00 0.00
11:48 am 11:48 Cloudy 73 23 66 19 78 78 SW 8 13 30.12 1020 10 16 0.00 0.00
11:53 am 11:53 Cloudy 73 22.8 66 18.9 79 79 SW 9 15 30.13 1020 10 16 0.00 0.00
12:20 pm 12:20 Partly Cloudy 76 24.4 66 18.9 72 72 WSW 7 11 30.10 1019 10 16 0.00 0.00
12:53 pm 12:53 Mostly Sunny 77 25 65 18.3 66 66 SW 12 19 30.11 1020 10 16 0.00 0.00
1:53 pm 13:53 Mostly Sunny 80 26.7 62 16.7 54 54 WSW 12 19 30.09 1019 10 16 0.00 0.00
2:53 pm 14:53 Cloudy 81 27.2 63 17.2 54 54 VRB 7 11 30.06 1018 10 16 0.00 0.00
3:53 pm 15:53 Cloudy 82 27.8 62 16.7 51 51 SSW 15 24 30.04 1017 10 16 0.00 0.00
4:10 pm 16:10 Cloudy 81 27.2 61 16.1 51 51 SW 14 22 30.02 1016 10 16 0.00 0.00
4:20 pm 16:20 Cloudy 81 27.2 61 16.1 51 51 SW 9 15 30.02 1016 10 16 0.00 0.00
4:48 pm 16:48 Cloudy 81 27 63 17 54 54 WSW 7 11 30.00 1016 10 16 0.00 0.00
4:53 pm 16:53 Cloudy 81 27.2 62 16.7 53 53 WSW 9 15 30.02 1017 10 16 0.00 0.00
5:53 pm 17:53 Mostly Cloudy 80 26.7 61 16.1 52 52 SSW 8 13 30.01 1016 10 16 0.00 0.00
6:53 pm 18:53 Mostly Sunny 80 26.7 62 16.7 54 54 SSW 10 17 30.00 1016 10 16 0.00 0.00
7:53 pm 19:53 Sunny 78 25.6 62 16.7 58 58 SSW 5 7 30.00 1016 10 16 0.00 0.00
8:53 pm 20:53 Clear 77 25 63 17.2 62 62 SSW 6 9 30.00 1016 10 16 0.00 0.00
9:53 pm 21:53 Clear 76 24.4 63 17.2 64 64 S 8 13 29.99 1016 10 16 0.00 0.00
10:53 pm 22:53 Clear 75 23.9 63 17.2 66 66 S 10 17 29.97 1015 10 16 0.00 0.00
11:53 pm 23:53 Clear 74 23.3 63 17.2 69 69 SSW 6 9 29.97 1015 10 16 0.00 0.00

Powered by AerisWeather